STARLINK-30799, 58121

Orbit data source: Space-Track

STARLINK-30799, 58121 is a payload satellite owned by SpaceX/Seattle (US) in LEO that was launched on Sun, 22 Oct 2023 UTC via an FALCON 9 launch vehicle from the Air Force Eastern Test Range (AFETR). Payload-class satellites include a variety of spacecraft equipped with specific instruments for various scientific and technological missions. These include communications satellites like Starlink; space stations such as the ISS; scientific satellites like the Hubble; Earth observation satellites from companies like Planet Labs, Umbra, and HawkEye 360; GPS; miniature CubeSats for education and research; and military/defense satellites.

Loading next visibility...
Identifier
58121, 2023-162D
Orbit
LEO
Country
Flag of USUS
Related business
Manufacturer
SpaceX/Seattle
Mission
Operational Commercial Communications
Bus & Motor
STARLINK V2M, Unknown motor
Mass
730 kg wet, ~700 kg dry
Launch date (UTC)
2023-10-22 (2 years ago)
Launch vehicle
FALCON 9
Launch site
Air Force Eastern Test Range (AFETR)
Object type
Payload
Rocket body
Debris
Shape & HBR
Box + 2 Pan, 17.7 m
Radar Cross Section
33.884 m², Large (>1 m²)

Expand to show TLE details & history
Last TLE update: 2 days ago

TLE from 2 days ago
0 STARLINK-30799
1 58121U 23162D   25348.04508834  .00000877  00000-0  80017-4 0  9997
2 58121  43.0034 238.7215 0001158 270.6941  89.3769 15.02535980119411
Epoch: 2025-12-14T01:04Z
TLE epoch observation values (Epoch: 2025-12-14T01:04:55.632Z)
Latitude
Longitude
139.52605°
Altitude
558.849 km
Speed
7.584 km/s
True Right ascension
15h 54m 53s
True Declination
0° 00' 00"
Sunlit
Object was in daylight at epoch
Visualization orbit readout
Latitude
Unknown
Longitude
Unknown
Altitude
Unknown
Speed
Unknown
Apparent Right ascension
Unknown
Apparent Declination
Unknown
Sunlit
N/A
Visualization observer readout
Local Sidereal Time
13:26:11
Azimuth
Unknown
Elevation
Unknown
Doppler factor
Unknown
Orbital elements
Apogee altitude
561.807 km
Perigee altitude
560.199 km
Semi-major axis
6,939.14 km
Eccentricity
0.00012
Inclination
43.0034°
RAAN
238.7215°
Arg. of periapsis
270.6941°
True anomaly
89.39017°
Mean anomaly
89.3769°
Eccentric anomaly
89.38353°
Mean motion
3.75478 °/min
Orbital period
95.88 mins
BSTAR
0.000080017
Loading maneuver chart data...
Computing Atmospheric mass density...
Loading historical data...
Loading historical data...
Loading historical data...
Loading historical data...
Loading historical data...
Loading historical data...
Loading historical data...

Documentation

Showing up to 5 results
|